owner,sensor,date,latitude,longitude,sea_surface_height_above_sea_level,qcFlag 
COMPS,ioos:station:USF.COMPS:ANM:1,2008-07-01T00:00:00Z,27.5400,-82.7400,-0.475,1111122 
COMPS,ioos:station:USF.COMPS:ANM:1,2008-07-01T00:06:00Z,27.5400,-82.7400,-0.46,1111122 
COMPS,ioos:station:USF.COMPS:ANM:1,2008-07-01T00:12:00Z,27.5400,-82.7400,-0.442,1111122 
COMPS,ioos:station:USF.COMPS:ANM:1,2008-07-01T00:18:00Z,27.5400,-82.7400,-0.436,1111122 
COMPS,ioos:station:USF.COMPS:ANM:1,2008-07-01T00:24:00Z,27.5400,-82.7400,-0.447,1111122 
COMPS,ioos:station:USF.COMPS:ANM:1,2008-07-01T00:30:00Z,27.5400,-82.7400,-0.441,1111122 
COMPS,ioos:station:USF.COMPS:ANM:1,2008-07-01T00:36:00Z,27.5400,-82.7400,-0.433,1111122 
COMPS,ioos:station:USF.COMPS:ANM:1,2008-07-01T00:42:00Z,27.5400,-82.7400,-0.416,1111122 
COMPS,ioos:station:USF.COMPS:ANM:1,2008-07-01T00:48:00Z,27.5400,-82.7400,-0.405,1111122 
COMPS,ioos:station:USF.COMPS:ANM:1,2008-07-01T00:54:00Z,27.5400,-82.7400,-0.399,1111122 
COMPS,ioos:station:USF.COMPS:ANM:1,2008-07-01T01:00:00Z,27.5400,-82.7400,-0.371,1111122 
COMPS,ioos:station:USF.COMPS:ANM:1,2008-07-01T01:06:00Z,27.5400,-82.7400,-0.352,1111122 
COMPS,ioos:station:USF.COMPS:ANM:1,2008-07-01T01:12:00Z,27.5400,-82.7400,-0.335,1111122 
COMPS,ioos:station:USF.COMPS:ANM:1,2008-07-01T01:18:00Z,27.5400,-82.7400,-0.312,1111122 
COMPS,ioos:station:USF.COMPS:ANM:1,2008-07-01T01:24:00Z,27.5400,-82.7400,-0.296,1111122 
COMPS,ioos:station:USF.COMPS:ANM:1,2008-07-01T01:30:00Z,27.5400,-82.7400,-0.284,1111122 
COMPS,ioos:station:USF.COMPS:ANM:1,2008-07-01T01:36:00Z,27.5400,-82.7400,-0.277,1111122 
COMPS,ioos:station:USF.COMPS:ANM:1,2008-07-01T01:42:00Z,27.5400,-82.7400,-0.271,1111122 
COMPS,ioos:station:USF.COMPS:ANM:1,2008-07-01T01:48:00Z,27.5400,-82.7400,-0.242,1111122 
COMPS,ioos:station:USF.COMPS:ANM:1,2008-07-01T01:54:00Z,27.5400,-82.7400,-0.225,1111122 
COMPS,ioos:station:USF.COMPS:ANM:1,2008-07-01T02:00:00Z,27.5400,-82.7400,-0.211,1111122 
COMPS,ioos:station:USF.COMPS:ANM:1,2008-07-01T02:06:00Z,27.5400,-82.7400,-0.208,1111122 
COMPS,ioos:station:USF.COMPS:ANM:1,2008-07-01T02:12:00Z,27.5400,-82.7400,-0.203,1111122 
COMPS,ioos:station:USF.COMPS:ANM:1,2008-07-01T02:18:00Z,27.5400,-82.7400,-0.176,1111122 
COMPS,ioos:station:USF.COMPS:ANM:1,2008-07-01T02:24:00Z,27.5400,-82.7400,-0.16,1111122 
COMPS,ioos:station:USF.COMPS:ANM:1,2008-07-01T02:30:00Z,27.5400,-82.7400,-0.151,1111122 
COMPS,ioos:station:USF.COMPS:ANM:1,2008-07-01T02:36:00Z,27.5400,-82.7400,-0.167,1111122 
COMPS,ioos:station:USF.COMPS:ANM:1,2008-07-01T02:42:00Z,27.5400,-82.7400,-0.183,1111122 
COMPS,ioos:station:USF.COMPS:ANM:1,2008-07-01T02:48:00Z,27.5400,-82.7400,-0.183,1111122 
COMPS,ioos:station:USF.COMPS:ANM:1,2008-07-01T02:54:00Z,27.5400,-82.7400,-0.173,1111122 
COMPS,ioos:station:USF.COMPS:ANM:1,2008-07-01T03:00:00Z,27.5400,-82.7400,-0.153,1111122 
COMPS,ioos:station:USF.COMPS:ANM:1,2008-07-01T03:06:00Z,27.5400,-82.7400,-0.158,1111122 
COMPS,ioos:station:USF.COMPS:ANM:1,2008-07-01T03:12:00Z,27.5400,-82.7400,-0.143,1111122 
COMPS,ioos:station:USF.COMPS:ANM:1,2008-07-01T03:18:00Z,27.5400,-82.7400,-0.139,1111122 
COMPS,ioos:station:USF.COMPS:ANM:1,2008-07-01T03:24:00Z,27.5400,-82.7400,-0.131,1111122 
COMPS,ioos:station:USF.COMPS:ANM:1,2008-07-01T03:30:00Z,27.5400,-82.7400,-0.126,1111122 
COMPS,ioos:station:USF.COMPS:ANM:1,2008-07-01T03:36:00Z,27.5400,-82.7400,-0.122,1111122 
COMPS,ioos:station:USF.COMPS:ANM:1,2008-07-01T03:42:00Z,27.5400,-82.7400,-0.112,1111122 
COMPS,ioos:station:USF.COMPS:ANM:1,2008-07-01T03:48:00Z,27.5400,-82.7400,-0.103,1111122 
COMPS,ioos:station:USF.COMPS:ANM:1,2008-07-01T03:54:00Z,27.5400,-82.7400,-0.094,1111122 
COMPS,ioos:station:USF.COMPS:ANM:1,2008-07-01T04:00:00Z,27.5400,-82.7400,-0.085,1111122 
COMPS,ioos:station:USF.COMPS:ANM:1,2008-07-01T04:06:00Z,27.5400,-82.7400,-0.077,1111122 
COMPS,ioos:station:USF.COMPS:ANM:1,2008-07-01T04:12:00Z,27.5400,-82.7400,-0.081,1111122 
COMPS,ioos:station:USF.COMPS:ANM:1,2008-07-01T04:18:00Z,27.5400,-82.7400,-0.08,1111122 
COMPS,ioos:station:USF.COMPS:ANM:1,2008-07-01T04:24:00Z,27.5400,-82.7400,-0.074,1111122 
COMPS,ioos:station:USF.COMPS:ANM:1,2008-07-01T04:30:00Z,27.5400,-82.7400,-0.082,1111122 
COMPS,ioos:station:USF.COMPS:ANM:1,2008-07-01T04:36:00Z,27.5400,-82.7400,-0.083,1111122 
COMPS,ioos:station:USF.COMPS:ANM:1,2008-07-01T04:42:00Z,27.5400,-82.7400,-0.08,1111122 
COMPS,ioos:station:USF.COMPS:ANM:1,2008-07-01T04:48:00Z,27.5400,-82.7400,-0.067,1111122 
COMPS,ioos:station:USF.COMPS:ANM:1,2008-07-01T04:54:00Z,27.5400,-82.7400,-0.071,1111122 
COMPS,ioos:station:USF.COMPS:ANM:1,2008-07-01T05:00:00Z,27.5400,-82.7400,-0.075,1111122 
COMPS,ioos:station:USF.COMPS:ANM:1,2008-07-01T05:06:00Z,27.5400,-82.7400,-0.072,1111122 
COMPS,ioos:station:USF.COMPS:ANM:1,2008-07-01T05:12:00Z,27.5400,-82.7400,-0.077,1111122 
COMPS,ioos:station:USF.COMPS:ANM:1,2008-07-01T05:18:00Z,27.5400,-82.7400,-0.076,1111122 
COMPS,ioos:station:USF.COMPS:ANM:1,2008-07-01T05:24:00Z,27.5400,-82.7400,-0.082,1111122 
COMPS,ioos:station:USF.COMPS:ANM:1,2008-07-01T05:30:00Z,27.5400,-82.7400,-0.085,1111122 
COMPS,ioos:station:USF.COMPS:ANM:1,2008-07-01T05:36:00Z,27.5400,-82.7400,-0.083,1111122 
COMPS,ioos:station:USF.COMPS:ANM:1,2008-07-01T05:42:00Z,27.5400,-82.7400,-0.083,1111122 
COMPS,ioos:station:USF.COMPS:ANM:1,2008-07-01T05:48:00Z,27.5400,-82.7400,-0.101,1111122 
COMPS,ioos:station:USF.COMPS:ANM:1,2008-07-01T05:54:00Z,27.5400,-82.7400,-0.126,1111122 
COMPS,ioos:station:USF.COMPS:ANM:1,2008-07-01T06:00:00Z,27.5400,-82.7400,-0.115,1111122 
COMPS,ioos:station:USF.COMPS:ANM:1,2008-07-01T06:06:00Z,27.5400,-82.7400,-0.103,1111122 
COMPS,ioos:station:USF.COMPS:ANM:1,2008-07-01T06:12:00Z,27.5400,-82.7400,-0.123,1111122 
COMPS,ioos:station:USF.COMPS:ANM:1,2008-07-01T06:18:00Z,27.5400,-82.7400,-0.125,1111122 
COMPS,ioos:station:USF.COMPS:ANM:1,2008-07-01T06:24:00Z,27.5400,-82.7400,-0.112,1111122 
COMPS,ioos:station:USF.COMPS:ANM:1,2008-07-01T06:30:00Z,27.5400,-82.7400,-0.126,1111122 
COMPS,ioos:station:USF.COMPS:ANM:1,2008-07-01T06:36:00Z,27.5400,-82.7400,-0.136,1111122 
COMPS,ioos:station:USF.COMPS:ANM:1,2008-07-01T06:42:00Z,27.5400,-82.7400,-0.133,1111122 
COMPS,ioos:station:USF.COMPS:ANM:1,2008-07-01T06:48:00Z,27.5400,-82.7400,-0.111,1111122 
COMPS,ioos:station:USF.COMPS:ANM:1,2008-07-01T06:54:00Z,27.5400,-82.7400,-0.101,1111122 
COMPS,ioos:station:USF.COMPS:ANM:1,2008-07-01T07:00:00Z,27.5400,-82.7400,-0.098,1111122 
COMPS,ioos:station:USF.COMPS:ANM:1,2008-07-01T07:06:00Z,27.5400,-82.7400,-0.111,1111122 
COMPS,ioos:station:USF.COMPS:ANM:1,2008-07-01T07:12:00Z,27.5400,-82.7400,-0.109,1111122 
COMPS,ioos:station:USF.COMPS:ANM:1,2008-07-01T07:18:00Z,27.5400,-82.7400,-0.104,1111122 
COMPS,ioos:station:USF.COMPS:ANM:1,2008-07-01T07:24:00Z,27.5400,-82.7400,-0.108,1111122 
COMPS,ioos:station:USF.COMPS:ANM:1,2008-07-01T07:30:00Z,27.5400,-82.7400,-0.098,1111122 
COMPS,ioos:station:USF.COMPS:ANM:1,2008-07-01T07:36:00Z,27.5400,-82.7400,-0.111,1111122 
COMPS,ioos:station:USF.COMPS:ANM:1,2008-07-01T07:42:00Z,27.5400,-82.7400,-0.112,1111122 
COMPS,ioos:station:USF.COMPS:ANM:1,2008-07-01T07:48:00Z,27.5400,-82.7400,-0.118,1111122 
COMPS,ioos:station:USF.COMPS:ANM:1,2008-07-01T07:54:00Z,27.5400,-82.7400,-0.12,1111122 
COMPS,ioos:station:USF.COMPS:ANM:1,2008-07-01T08:00:00Z,27.5400,-82.7400,-0.113,1111122 
COMPS,ioos:station:USF.COMPS:ANM:1,2008-07-01T08:06:00Z,27.5400,-82.7400,-0.115,1111122 
COMPS,ioos:station:USF.COMPS:ANM:1,2008-07-01T08:12:00Z,27.5400,-82.7400,-0.106,1111122 
COMPS,ioos:station:USF.COMPS:ANM:1,2008-07-01T08:18:00Z,27.5400,-82.7400,-0.104,1111122 
COMPS,ioos:station:USF.COMPS:ANM:1,2008-07-01T08:24:00Z,27.5400,-82.7400,-0.083,1111122 
COMPS,ioos:station:USF.COMPS:ANM:1,2008-07-01T08:30:00Z,27.5400,-82.7400,-0.081,1111122 
COMPS,ioos:station:USF.COMPS:ANM:1,2008-07-01T08:36:00Z,27.5400,-82.7400,-0.082,1111122 
COMPS,ioos:station:USF.COMPS:ANM:1,2008-07-01T08:42:00Z,27.5400,-82.7400,-0.086,1111122 
COMPS,ioos:station:USF.COMPS:ANM:1,2008-07-01T08:48:00Z,27.5400,-82.7400,-0.069,1111122 
COMPS,ioos:station:USF.COMPS:ANM:1,2008-07-01T08:54:00Z,27.5400,-82.7400,-0.049,1111122 
COMPS,ioos:station:USF.COMPS:ANM:1,2008-07-01T09:00:00Z,27.5400,-82.7400,-0.032,1111122 
COMPS,ioos:station:USF.COMPS:ANM:1,2008-07-01T09:06:00Z,27.5400,-82.7400,-0.025,1111122 
COMPS,ioos:station:USF.COMPS:ANM:1,2008-07-01T09:12:00Z,27.5400,-82.7400,-0.003,1111122 
COMPS,ioos:station:USF.COMPS:ANM:1,2008-07-01T09:18:00Z,27.5400,-82.7400,0.009,1111122 
COMPS,ioos:station:USF.COMPS:ANM:1,2008-07-01T09:24:00Z,27.5400,-82.7400,0.018,1111122 
COMPS,ioos:station:USF.COMPS:ANM:1,2008-07-01T09:30:00Z,27.5400,-82.7400,0.027,1111122 
COMPS,ioos:station:USF.COMPS:ANM:1,2008-07-01T09:36:00Z,27.5400,-82.7400,0.03,1111122 
COMPS,ioos:station:USF.COMPS:ANM:1,2008-07-01T09:42:00Z,27.5400,-82.7400,0.042,1111122 
COMPS,ioos:station:USF.COMPS:ANM:1,2008-07-01T09:48:00Z,27.5400,-82.7400,0.069,1111122 
COMPS,ioos:station:USF.COMPS:ANM:1,2008-07-01T09:54:00Z,27.5400,-82.7400,0.084,1111122 
COMPS,ioos:station:USF.COMPS:ANM:1,2008-07-01T10:00:00Z,27.5400,-82.7400,0.096,1111122 
COMPS,ioos:station:USF.COMPS:ANM:1,2008-07-01T10:06:00Z,27.5400,-82.7400,0.107,1111122 
COMPS,ioos:station:USF.COMPS:ANM:1,2008-07-01T10:12:00Z,27.5400,-82.7400,0.106,1111122 
COMPS,ioos:station:USF.COMPS:ANM:1,2008-07-01T10:18:00Z,27.5400,-82.7400,0.111,1111122 
COMPS,ioos:station:USF.COMPS:ANM:1,2008-07-01T10:24:00Z,27.5400,-82.7400,0.111,1111122 
COMPS,ioos:station:USF.COMPS:ANM:1,2008-07-01T10:30:00Z,27.5400,-82.7400,0.118,1111122 
COMPS,ioos:station:USF.COMPS:ANM:1,2008-07-01T10:36:00Z,27.5400,-82.7400,0.131,1111122 
COMPS,ioos:station:USF.COMPS:ANM:1,2008-07-01T10:42:00Z,27.5400,-82.7400,0.145,1111122 
COMPS,ioos:station:USF.COMPS:ANM:1,2008-07-01T10:48:00Z,27.5400,-82.7400,0.151,1111122 
COMPS,ioos:station:USF.COMPS:ANM:1,2008-07-01T10:54:00Z,27.5400,-82.7400,0.164,1111122 
COMPS,ioos:station:USF.COMPS:ANM:1,2008-07-01T11:00:00Z,27.5400,-82.7400,0.176,1111122 
COMPS,ioos:station:USF.COMPS:ANM:1,2008-07-01T11:06:00Z,27.5400,-82.7400,0.175,1111122 
COMPS,ioos:station:USF.COMPS:ANM:1,2008-07-01T11:12:00Z,27.5400,-82.7400,0.189,1111122 
COMPS,ioos:station:USF.COMPS:ANM:1,2008-07-01T11:18:00Z,27.5400,-82.7400,0.199,1111122 
COMPS,ioos:station:USF.COMPS:ANM:1,2008-07-01T11:24:00Z,27.5400,-82.7400,0.214,1111122 
COMPS,ioos:station:USF.COMPS:ANM:1,2008-07-01T11:30:00Z,27.5400,-82.7400,0.22,1111122 
COMPS,ioos:station:USF.COMPS:ANM:1,2008-07-01T11:36:00Z,27.5400,-82.7400,0.229,1111122 
COMPS,ioos:station:USF.COMPS:ANM:1,2008-07-01T11:42:00Z,27.5400,-82.7400,0.242,1111122 
COMPS,ioos:station:USF.COMPS:ANM:1,2008-07-01T11:48:00Z,27.5400,-82.7400,0.247,1111122 
COMPS,ioos:station:USF.COMPS:ANM:1,2008-07-01T11:54:00Z,27.5400,-82.7400,0.262,1111122 
COMPS,ioos:station:USF.COMPS:ANM:1,2008-07-01T12:00:00Z,27.5400,-82.7400,0.275,1111122 
COMPS,ioos:station:USF.COMPS:ANM:1,2008-07-01T12:06:00Z,27.5400,-82.7400,0.29,1111122 
COMPS,ioos:station:USF.COMPS:ANM:1,2008-07-01T12:12:00Z,27.5400,-82.7400,0.292,1111122 
COMPS,ioos:station:USF.COMPS:ANM:1,2008-07-01T12:18:00Z,27.5400,-82.7400,0.283,1111122 
COMPS,ioos:station:USF.COMPS:ANM:1,2008-07-01T12:24:00Z,27.5400,-82.7400,0.299,1111122 
COMPS,ioos:station:USF.COMPS:ANM:1,2008-07-01T12:30:00Z,27.5400,-82.7400,0.314,1111122 
COMPS,ioos:station:USF.COMPS:ANM:1,2008-07-01T12:36:00Z,27.5400,-82.7400,0.313,1111122 
COMPS,ioos:station:USF.COMPS:ANM:1,2008-07-01T12:42:00Z,27.5400,-82.7400,0.314,1111122 
COMPS,ioos:station:USF.COMPS:ANM:1,2008-07-01T12:48:00Z,27.5400,-82.7400,0.323,1111122 
COMPS,ioos:station:USF.COMPS:ANM:1,2008-07-01T12:54:00Z,27.5400,-82.7400,0.334,1111122 
COMPS,ioos:station:USF.COMPS:ANM:1,2008-07-01T13:00:00Z,27.5400,-82.7400,0.34,1111122 
COMPS,ioos:station:USF.COMPS:ANM:1,2008-07-01T13:06:00Z,27.5400,-82.7400,0.34,1111122 
COMPS,ioos:station:USF.COMPS:ANM:1,2008-07-01T13:12:00Z,27.5400,-82.7400,0.339,1111122 
COMPS,ioos:station:USF.COMPS:ANM:1,2008-07-01T13:18:00Z,27.5400,-82.7400,0.347,1111122 
COMPS,ioos:station:USF.COMPS:ANM:1,2008-07-01T13:24:00Z,27.5400,-82.7400,0.35,1111122 
COMPS,ioos:station:USF.COMPS:ANM:1,2008-07-01T13:30:00Z,27.5400,-82.7400,0.352,1111122 
COMPS,ioos:station:USF.COMPS:ANM:1,2008-07-01T13:36:00Z,27.5400,-82.7400,0.351,1111122 
COMPS,ioos:station:USF.COMPS:ANM:1,2008-07-01T13:42:00Z,27.5400,-82.7400,0.344,1111122 
COMPS,ioos:station:USF.COMPS:ANM:1,2008-07-01T13:48:00Z,27.5400,-82.7400,0.348,1111122 
COMPS,ioos:station:USF.COMPS:ANM:1,2008-07-01T13:54:00Z,27.5400,-82.7400,0.351,1111122 
COMPS,ioos:station:USF.COMPS:ANM:1,2008-07-01T14:00:00Z,27.5400,-82.7400,0.344,1111122 
COMPS,ioos:station:USF.COMPS:ANM:1,2008-07-01T14:06:00Z,27.5400,-82.7400,0.343,1111122 
COMPS,ioos:station:USF.COMPS:ANM:1,2008-07-01T14:12:00Z,27.5400,-82.7400,0.335,1111122 
COMPS,ioos:station:USF.COMPS:ANM:1,2008-07-01T14:18:00Z,27.5400,-82.7400,0.335,1111122 
COMPS,ioos:station:USF.COMPS:ANM:1,2008-07-01T14:24:00Z,27.5400,-82.7400,0.333,1111122 
COMPS,ioos:station:USF.COMPS:ANM:1,2008-07-01T14:30:00Z,27.5400,-82.7400,0.351,1111122 
COMPS,ioos:station:USF.COMPS:ANM:1,2008-07-01T14:36:00Z,27.5400,-82.7400,0.355,1111122 
COMPS,ioos:station:USF.COMPS:ANM:1,2008-07-01T14:42:00Z,27.5400,-82.7400,0.346,1111122 
COMPS,ioos:station:USF.COMPS:ANM:1,2008-07-01T14:48:00Z,27.5400,-82.7400,0.326,1111122 
COMPS,ioos:station:USF.COMPS:ANM:1,2008-07-01T14:54:00Z,27.5400,-82.7400,0.319,1111122 
COMPS,ioos:station:USF.COMPS:ANM:1,2008-07-01T15:00:00Z,27.5400,-82.7400,0.324,1111122 
COMPS,ioos:station:USF.COMPS:ANM:1,2008-07-01T15:06:00Z,27.5400,-82.7400,0.321,1111122 
COMPS,ioos:station:USF.COMPS:ANM:1,2008-07-01T15:12:00Z,27.5400,-82.7400,0.324,1111122 
COMPS,ioos:station:USF.COMPS:ANM:1,2008-07-01T15:18:00Z,27.5400,-82.7400,0.323,1111122 
COMPS,ioos:station:USF.COMPS:ANM:1,2008-07-01T15:24:00Z,27.5400,-82.7400,0.324,1111122 
COMPS,ioos:station:USF.COMPS:ANM:1,2008-07-01T15:30:00Z,27.5400,-82.7400,0.305,1111122 
COMPS,ioos:station:USF.COMPS:ANM:1,2008-07-01T15:36:00Z,27.5400,-82.7400,0.294,1111122 
COMPS,ioos:station:USF.COMPS:ANM:1,2008-07-01T15:42:00Z,27.5400,-82.7400,0.279,1111122 
COMPS,ioos:station:USF.COMPS:ANM:1,2008-07-01T15:48:00Z,27.5400,-82.7400,0.281,1111122 
COMPS,ioos:station:USF.COMPS:ANM:1,2008-07-01T15:54:00Z,27.5400,-82.7400,0.273,1111122 
COMPS,ioos:station:USF.COMPS:ANM:1,2008-07-01T16:00:00Z,27.5400,-82.7400,0.267,1111122 
COMPS,ioos:station:USF.COMPS:ANM:1,2008-07-01T16:06:00Z,27.5400,-82.7400,0.245,1111122 
COMPS,ioos:station:USF.COMPS:ANM:1,2008-07-01T16:12:00Z,27.5400,-82.7400,0.215,1111122 
COMPS,ioos:station:USF.COMPS:ANM:1,2008-07-01T16:18:00Z,27.5400,-82.7400,0.205,1111122 
COMPS,ioos:station:USF.COMPS:ANM:1,2008-07-01T16:24:00Z,27.5400,-82.7400,0.199,1111122 
COMPS,ioos:station:USF.COMPS:ANM:1,2008-07-01T16:30:00Z,27.5400,-82.7400,0.178,1111122 
COMPS,ioos:station:USF.COMPS:ANM:1,2008-07-01T16:36:00Z,27.5400,-82.7400,0.176,1111122 
COMPS,ioos:station:USF.COMPS:ANM:1,2008-07-01T16:42:00Z,27.5400,-82.7400,0.157,1111122 
COMPS,ioos:station:USF.COMPS:ANM:1,2008-07-01T16:48:00Z,27.5400,-82.7400,0.134,1111122 
COMPS,ioos:station:USF.COMPS:ANM:1,2008-07-01T16:54:00Z,27.5400,-82.7400,0.106,1111122 
COMPS,ioos:station:USF.COMPS:ANM:1,2008-07-01T17:00:00Z,27.5400,-82.7400,0.09,1111122 
COMPS,ioos:station:USF.COMPS:ANM:1,2008-07-01T17:06:00Z,27.5400,-82.7400,0.076,1111122 
COMPS,ioos:station:USF.COMPS:ANM:1,2008-07-01T17:12:00Z,27.5400,-82.7400,0.06,1111122 
COMPS,ioos:station:USF.COMPS:ANM:1,2008-07-01T17:18:00Z,27.5400,-82.7400,0.048,1111122 
COMPS,ioos:station:USF.COMPS:ANM:1,2008-07-01T17:24:00Z,27.5400,-82.7400,0.025,1111122 
COMPS,ioos:station:USF.COMPS:ANM:1,2008-07-01T17:30:00Z,27.5400,-82.7400,0.009,1111122 
COMPS,ioos:station:USF.COMPS:ANM:1,2008-07-01T17:36:00Z,27.5400,-82.7400,-0.027,1111122 
COMPS,ioos:station:USF.COMPS:ANM:1,2008-07-01T17:42:00Z,27.5400,-82.7400,-0.045,1111122 
COMPS,ioos:station:USF.COMPS:ANM:1,2008-07-01T17:48:00Z,27.5400,-82.7400,-0.056,1111122 
COMPS,ioos:station:USF.COMPS:ANM:1,2008-07-01T17:54:00Z,27.5400,-82.7400,-0.087,1111122 
COMPS,ioos:station:USF.COMPS:ANM:1,2008-07-01T18:00:00Z,27.5400,-82.7400,-0.11,1111122 
COMPS,ioos:station:USF.COMPS:ANM:1,2008-07-01T18:06:00Z,27.5400,-82.7400,-0.125,1111122 
COMPS,ioos:station:USF.COMPS:ANM:1,2008-07-01T18:12:00Z,27.5400,-82.7400,-0.136,1111122 
COMPS,ioos:station:USF.COMPS:ANM:1,2008-07-01T18:18:00Z,27.5400,-82.7400,-0.15,1111122 
COMPS,ioos:station:USF.COMPS:ANM:1,2008-07-01T18:24:00Z,27.5400,-82.7400,-0.176,1111122 
COMPS,ioos:station:USF.COMPS:ANM:1,2008-07-01T18:30:00Z,27.5400,-82.7400,-0.203,1111122 
COMPS,ioos:station:USF.COMPS:ANM:1,2008-07-01T18:36:00Z,27.5400,-82.7400,-0.215,1111122 
COMPS,ioos:station:USF.COMPS:ANM:1,2008-07-01T18:42:00Z,27.5400,-82.7400,-0.237,1111122 
COMPS,ioos:station:USF.COMPS:ANM:1,2008-07-01T18:48:00Z,27.5400,-82.7400,-0.263,1111122 
COMPS,ioos:station:USF.COMPS:ANM:1,2008-07-01T18:54:00Z,27.5400,-82.7400,-0.277,1111122 
COMPS,ioos:station:USF.COMPS:ANM:1,2008-07-01T19:00:00Z,27.5400,-82.7400,-0.303,1111122 
COMPS,ioos:station:USF.COMPS:ANM:1,2008-07-01T19:06:00Z,27.5400,-82.7400,-0.331,1111122 
COMPS,ioos:station:USF.COMPS:ANM:1,2008-07-01T19:12:00Z,27.5400,-82.7400,-0.339,1111122 
COMPS,ioos:station:USF.COMPS:ANM:1,2008-07-01T19:18:00Z,27.5400,-82.7400,-0.361,1111122 
COMPS,ioos:station:USF.COMPS:ANM:1,2008-07-01T19:24:00Z,27.5400,-82.7400,-0.385,1111122 
COMPS,ioos:station:USF.COMPS:ANM:1,2008-07-01T19:30:00Z,27.5400,-82.7400,-0.39,1111122 
COMPS,ioos:station:USF.COMPS:ANM:1,2008-07-01T19:36:00Z,27.5400,-82.7400,-0.399,1111122 
COMPS,ioos:station:USF.COMPS:ANM:1,2008-07-01T19:42:00Z,27.5400,-82.7400,-0.426,1111122 
COMPS,ioos:station:USF.COMPS:ANM:1,2008-07-01T19:48:00Z,27.5400,-82.7400,-0.444,1111122 
COMPS,ioos:station:USF.COMPS:ANM:1,2008-07-01T19:54:00Z,27.5400,-82.7400,-0.459,1111122 
COMPS,ioos:station:USF.COMPS:ANM:1,2008-07-01T20:00:00Z,27.5400,-82.7400,-0.487,1111122 
COMPS,ioos:station:USF.COMPS:ANM:1,2008-07-01T20:06:00Z,27.5400,-82.7400,-0.51,1111122 
COMPS,ioos:station:USF.COMPS:ANM:1,2008-07-01T20:12:00Z,27.5400,-82.7400,-0.533,1111122 
COMPS,ioos:station:USF.COMPS:ANM:1,2008-07-01T20:18:00Z,27.5400,-82.7400,-0.539,1111122 
COMPS,ioos:station:USF.COMPS:ANM:1,2008-07-01T20:24:00Z,27.5400,-82.7400,-0.557,1111122 
COMPS,ioos:station:USF.COMPS:ANM:1,2008-07-01T20:30:00Z,27.5400,-82.7400,-0.569,1111122 
COMPS,ioos:station:USF.COMPS:ANM:1,2008-07-01T20:36:00Z,27.5400,-82.7400,-0.59,1111122 
COMPS,ioos:station:USF.COMPS:ANM:1,2008-07-01T20:42:00Z,27.5400,-82.7400,-0.601,1111122 
COMPS,ioos:station:USF.COMPS:ANM:1,2008-07-01T20:48:00Z,27.5400,-82.7400,-0.609,1111122 
COMPS,ioos:station:USF.COMPS:ANM:1,2008-07-01T20:54:00Z,27.5400,-82.7400,-0.621,1111122 
COMPS,ioos:station:USF.COMPS:ANM:1,2008-07-01T21:00:00Z,27.5400,-82.7400,-0.628,1111122 
COMPS,ioos:station:USF.COMPS:ANM:1,2008-07-01T21:06:00Z,27.5400,-82.7400,-0.634,1111122 
COMPS,ioos:station:USF.COMPS:ANM:1,2008-07-01T21:12:00Z,27.5400,-82.7400,-0.645,1111122 
COMPS,ioos:station:USF.COMPS:ANM:1,2008-07-01T21:18:00Z,27.5400,-82.7400,-0.647,1111122 
COMPS,ioos:station:USF.COMPS:ANM:1,2008-07-01T21:24:00Z,27.5400,-82.7400,-0.656,1111122 
COMPS,ioos:station:USF.COMPS:ANM:1,2008-07-01T21:30:00Z,27.5400,-82.7400,-0.666,1111122 
COMPS,ioos:station:USF.COMPS:ANM:1,2008-07-01T21:36:00Z,27.5400,-82.7400,-0.674,1111122 
COMPS,ioos:station:USF.COMPS:ANM:1,2008-07-01T21:42:00Z,27.5400,-82.7400,-0.677,1111122 
COMPS,ioos:station:USF.COMPS:ANM:1,2008-07-01T21:48:00Z,27.5400,-82.7400,-0.673,1111122 
COMPS,ioos:station:USF.COMPS:ANM:1,2008-07-01T21:54:00Z,27.5400,-82.7400,-0.678,1111122 
COMPS,ioos:station:USF.COMPS:ANM:1,2008-07-01T22:00:00Z,27.5400,-82.7400,-0.686,1111122 
COMPS,ioos:station:USF.COMPS:ANM:1,2008-07-01T22:06:00Z,27.5400,-82.7400,-0.692,1111122 
COMPS,ioos:station:USF.COMPS:ANM:1,2008-07-01T22:12:00Z,27.5400,-82.7400,-0.695,1111122 
COMPS,ioos:station:USF.COMPS:ANM:1,2008-07-01T22:18:00Z,27.5400,-82.7400,-0.698,1111122 
COMPS,ioos:station:USF.COMPS:ANM:1,2008-07-01T22:24:00Z,27.5400,-82.7400,-0.701,1111122 
COMPS,ioos:station:USF.COMPS:ANM:1,2008-07-01T22:30:00Z,27.5400,-82.7400,-0.71,1111122 
COMPS,ioos:station:USF.COMPS:ANM:1,2008-07-01T22:36:00Z,27.5400,-82.7400,-0.708,1111122 
COMPS,ioos:station:USF.COMPS:ANM:1,2008-07-01T22:42:00Z,27.5400,-82.7400,-0.703,1111122 
COMPS,ioos:station:USF.COMPS:ANM:1,2008-07-01T22:48:00Z,27.5400,-82.7400,-0.702,1111122 
COMPS,ioos:station:USF.COMPS:ANM:1,2008-07-01T22:54:00Z,27.5400,-82.7400,-0.702,1111122 
COMPS,ioos:station:USF.COMPS:ANM:1,2008-07-01T23:00:00Z,27.5400,-82.7400,-0.697,1111122 
COMPS,ioos:station:USF.COMPS:ANM:1,2008-07-01T23:06:00Z,27.5400,-82.7400,-0.692,1111122 
COMPS,ioos:station:USF.COMPS:ANM:1,2008-07-01T23:12:00Z,27.5400,-82.7400,-0.683,1111122 
COMPS,ioos:station:USF.COMPS:ANM:1,2008-07-01T23:18:00Z,27.5400,-82.7400,-0.667,1111122 
COMPS,ioos:station:USF.COMPS:ANM:1,2008-07-01T23:24:00Z,27.5400,-82.7400,-0.662,1111122 
COMPS,ioos:station:USF.COMPS:ANM:1,2008-07-01T23:30:00Z,27.5400,-82.7400,-0.657,1111122 
COMPS,ioos:station:USF.COMPS:ANM:1,2008-07-01T23:36:00Z,27.5400,-82.7400,-0.655,1111122 
COMPS,ioos:station:USF.COMPS:ANM:1,2008-07-01T23:42:00Z,27.5400,-82.7400,-0.638,1111122 
COMPS,ioos:station:USF.COMPS:ANM:1,2008-07-01T23:48:00Z,27.5400,-82.7400,-0.627,1111122 
COMPS,ioos:station:USF.COMPS:ANM:1,2008-07-01T23:54:00Z,27.5400,-82.7400,-0.614,1111122 
COMPS,ioos:station:USF.COMPS:ANM:1,2008-07-02T00:00:00Z,27.5400,-82.7400,-0.605,1111122 
COMPS,ioos:station:USF.COMPS:ANM:1,2008-07-02T00:06:00Z,27.5400,-82.7400,-0.598,1111122 
COMPS,ioos:station:USF.COMPS:ANM:1,2008-07-02T00:12:00Z,27.5400,-82.7400,-0.58,1111122 
COMPS,ioos:station:USF.COMPS:ANM:1,2008-07-02T00:18:00Z,27.5400,-82.7400,-0.558,1111122 
COMPS,ioos:station:USF.COMPS:ANM:1,2008-07-02T00:24:00Z,27.5400,-82.7400,-0.53,1111122 
COMPS,ioos:station:USF.COMPS:ANM:1,2008-07-02T00:30:00Z,27.5400,-82.7400,-0.527,1111122 
COMPS,ioos:station:USF.COMPS:ANM:1,2008-07-02T00:36:00Z,27.5400,-82.7400,-0.514,1111122 
COMPS,ioos:station:USF.COMPS:ANM:1,2008-07-02T00:42:00Z,27.5400,-82.7400,-0.501,1111122 
COMPS,ioos:station:USF.COMPS:ANM:1,2008-07-02T00:48:00Z,27.5400,-82.7400,-0.496,1111122 
COMPS,ioos:station:USF.COMPS:ANM:1,2008-07-02T00:54:00Z,27.5400,-82.7400,-0.492,1111122 
COMPS,ioos:station:USF.COMPS:ANM:1,2008-07-02T01:00:00Z,27.5400,-82.7400,-0.468,1111122 
COMPS,ioos:station:USF.COMPS:ANM:1,2008-07-02T01:06:00Z,27.5400,-82.7400,-0.454,1111122 
COMPS,ioos:station:USF.COMPS:ANM:1,2008-07-02T01:12:00Z,27.5400,-82.7400,-0.441,1111122 
COMPS,ioos:station:USF.COMPS:ANM:1,2008-07-02T01:18:00Z,27.5400,-82.7400,-0.429,1111122 
COMPS,ioos:station:USF.COMPS:ANM:1,2008-07-02T01:24:00Z,27.5400,-82.7400,-0.419,1111122 
COMPS,ioos:station:USF.COMPS:ANM:1,2008-07-02T01:30:00Z,27.5400,-82.7400,-0.418,1111122 
COMPS,ioos:station:USF.COMPS:ANM:1,2008-07-02T01:36:00Z,27.5400,-82.7400,-0.408,1111122 
COMPS,ioos:station:USF.COMPS:ANM:1,2008-07-02T01:42:00Z,27.5400,-82.7400,-0.401,1111122 
COMPS,ioos:station:USF.COMPS:ANM:1,2008-07-02T01:48:00Z,27.5400,-82.7400,-0.398,1111122 
COMPS,ioos:station:USF.COMPS:ANM:1,2008-07-02T01:54:00Z,27.5400,-82.7400,-0.385,1111122 
COMPS,ioos:station:USF.COMPS:ANM:1,2008-07-02T02:00:00Z,27.5400,-82.7400,-0.381,1111122 
COMPS,ioos:station:USF.COMPS:ANM:1,2008-07-02T02:06:00Z,27.5400,-82.7400,-0.366,1111122 
COMPS,ioos:station:USF.COMPS:ANM:1,2008-07-02T02:12:00Z,27.5400,-82.7400,-0.341,1111122 
COMPS,ioos:station:USF.COMPS:ANM:1,2008-07-02T02:18:00Z,27.5400,-82.7400,-0.323,1111122 
COMPS,ioos:station:USF.COMPS:ANM:1,2008-07-02T02:24:00Z,27.5400,-82.7400,-0.312,1111122 
COMPS,ioos:station:USF.COMPS:ANM:1,2008-07-02T02:30:00Z,27.5400,-82.7400,-0.314,1111122 
COMPS,ioos:station:USF.COMPS:ANM:1,2008-07-02T02:36:00Z,27.5400,-82.7400,-0.307,1111122 
COMPS,ioos:station:USF.COMPS:ANM:1,2008-07-02T02:42:00Z,27.5400,-82.7400,-0.302,1111122 
COMPS,ioos:station:USF.COMPS:ANM:1,2008-07-02T02:48:00Z,27.5400,-82.7400,-0.298,1111122 